TimeAEST,TemperatureF,Dew PointF,Humidity,Sea Level PressureIn,VisibilityMPH,Wind Direction,Wind SpeedMPH,Gust SpeedMPH,PrecipitationIn,Events,Conditions,WindDirDegrees,DateUTC
12:00 AM,57,41,43,29.89,25,SW,11.5,,,,Partly Cloudy,230,2013-08-06 14:00:00
12:00 AM,57.2,41.0,55,29.89,-9999.0,SW,11.5,-,N/A,,Clear,230,2013-08-06 14:00:00
12:30 AM,57.2,39.2,51,29.89,-9999.0,WSW,12.7,-,N/A,,Clear,250,2013-08-06 14:30:00
1:00 AM,56,41,46,29.91,,West,17.3,,,,,260,2013-08-06 15:00:00
1:00 AM,55.4,41.0,58,29.89,6.2,West,17.3,-,N/A,Rain,Light Rain Showers,260,2013-08-06 15:00:00
1:30 AM,53.6,44.6,72,29.89,6.2,West,12.7,-,N/A,Rain,Light Rain Showers,270,2013-08-06 15:30:00
2:00 AM,55.4,42.8,63,29.89,-9999.0,WNW,11.5,-,N/A,,Clear,290,2013-08-06 16:00:00
2:30 AM,55.4,42.8,63,29.86,6.2,West,15.0,-,N/A,Rain,Light Rain Showers,260,2013-08-06 16:30:00
3:00 AM,54,43,58,29.87,9,West,10.4,,,Rain,Light Rain Showers,280,2013-08-06 17:00:00
3:30 AM,53.6,44.6,72,29.86,-9999.0,West,5.8,-,N/A,,Clear,270,2013-08-06 17:30:00
4:00 AM,53,44,62,29.88,,West,4.6,,,,,260,2013-08-06 18:00:00
4:00 AM,53.6,44.6,72,29.86,-9999.0,West,4.6,-,N/A,,Clear,260,2013-08-06 18:00:00
4:30 AM,53.6,46.4,77,29.86,-9999.0,West,5.8,-,N/A,,Clear,260,2013-08-06 18:30:00
5:00 AM,53.6,44.6,72,29.89,-9999.0,West,5.8,-,N/A,,Clear,270,2013-08-06 19:00:00
5:30 AM,53.6,44.6,72,29.89,-9999.0,SSW,8.1,-,N/A,,Clear,200,2013-08-06 19:30:00
6:00 AM,52,45,70,29.90,16,SSW,12.7,,,,Partly Cloudy,210,2013-08-06 20:00:00
6:00 AM,51.8,44.6,76,29.89,-9999.0,SSW,12.7,-,N/A,,Clear,210,2013-08-06 20:00:00
6:30 AM,51.8,42.8,71,29.89,-9999.0,SW,15.0,-,N/A,,Clear,230,2013-08-06 20:30:00
7:00 AM,52,41,55,29.92,,West,12.7,,,,,260,2013-08-06 21:00:00
7:00 AM,51.8,41.0,67,29.92,-9999.0,West,12.7,-,N/A,,Clear,260,2013-08-06 21:00:00
7:30 AM,53.6,39.2,58,29.92,-9999.0,West,12.7,-,N/A,,Clear,260,2013-08-06 21:30:00
8:00 AM,53.6,37.4,54,29.92,-9999.0,WSW,18.4,-,N/A,,Clear,250,2013-08-06 22:00:00
8:30 AM,55.4,37.4,51,29.92,-9999.0,WSW,18.4,-,N/A,,Clear,250,2013-08-06 22:30:00
9:00 AM,56,38,40,29.94,16,WSW,19.6,,,,Partly Cloudy,250,2013-08-06 23:00:00
9:00 AM,55.4,39.2,54,29.92,-9999.0,WSW,19.6,-,N/A,,Clear,250,2013-08-06 23:00:00
10:00 AM,57,38,37,29.93,,WSW,16.1,,,,,250,2013-08-07 00:00:00
10:00 AM,57.2,37.4,48,29.92,-9999.0,WSW,16.1,-,N/A,,Clear,250,2013-08-07 00:00:00
10:30 AM,59.0,37.4,45,29.92,-9999.0,WSW,11.5,24.2,N/A,,Clear,240,2013-08-07 00:30:00
11:00 AM,60,39,34,29.91,,SW,6.9,,,,,230,2013-08-07 01:00:00
11:00 AM,59.0,39.2,48,29.89,-9999.0,SW,6.9,-,N/A,,Clear,230,2013-08-07 01:00:00
11:30 AM,60.8,37.4,42,29.89,-9999.0,SSW,5.8,-,N/A,,Clear,200,2013-08-07 01:30:00
12:00 PM,61,38,31,29.88,16,SE,5.8,,,,Partly Cloudy,140,2013-08-07 02:00:00
12:00 PM,60.8,37.4,42,29.86,-9999.0,SE,5.8,-,N/A,,Clear,140,2013-08-07 02:00:00
12:30 PM,62.6,37.4,39,29.83,-9999.0,East,6.9,-,N/A,,Clear,100,2013-08-07 02:30:00
1:00 PM,61,38,30,29.84,,ESE,8.1,,,,,120,2013-08-07 03:00:00
1:00 PM,60.8,37.4,42,29.83,-9999.0,ESE,8.1,-,N/A,,Clear,120,2013-08-07 03:00:00
1:30 PM,62.6,33.8,34,29.83,-9999.0,SE,8.1,-,N/A,,Clear,140,2013-08-07 03:30:00
2:00 PM,62,36,26,29.81,,ESE,10.4,,,,,110,2013-08-07 04:00:00
2:00 PM,62.6,35.6,37,29.80,-9999.0,ESE,10.4,-,N/A,,Clear,110,2013-08-07 04:00:00
2:30 PM,60.8,39.2,45,29.80,-9999.0,ESE,9.2,-,N/A,,Clear,110,2013-08-07 04:30:00
3:00 PM,62,40,32,29.81,16,ESE,10.4,,,,Partly Cloudy,110,2013-08-07 05:00:00
3:00 PM,60.8,39.2,45,29.80,-9999.0,ESE,10.4,-,N/A,,Clear,110,2013-08-07 05:00:00
3:30 PM,60.8,39.2,45,29.80,-9999.0,SE,9.2,-,N/A,,Clear,130,2013-08-07 05:30:00
4:00 PM,60,40,35,29.81,,SE,9.2,,,,,130,2013-08-07 06:00:00
4:00 PM,59.0,39.2,48,29.80,-9999.0,SE,9.2,-,N/A,,Clear,130,2013-08-07 06:00:00
4:30 PM,59.0,39.2,48,29.80,-9999.0,ESE,8.1,-,N/A,,Clear,120,2013-08-07 06:30:00
5:00 PM,59,40,39,29.82,,SE,8.1,,,,,130,2013-08-07 07:00:00
5:00 PM,59.0,41.0,51,29.80,-9999.0,SE,8.1,-,N/A,,Clear,130,2013-08-07 07:00:00
6:00 PM,58,43,47,29.82,12,East,8.1,,,Rain,Light Rain Showers,80,2013-08-07 08:00:00
6:00 PM,59.0,42.8,55,29.80,6.2,East,8.1,-,N/A,Rain,Light Rain Showers,80,2013-08-07 08:00:00
6:30 PM,57.2,44.6,63,29.83,6.2,NE,5.8,-,N/A,Rain,Light Rain Showers,50,2013-08-07 08:30:00
7:00 PM,57,45,54,29.85,,Calm,Calm,,,,,,2013-08-07 09:00:00
7:00 PM,57.2,44.6,63,29.83,6.2,Calm,Calm,-,N/A,Rain,Light Rain Showers,0,2013-08-07 09:00:00
7:30 PM,55.4,46.4,72,29.83,6.2,ENE,5.8,-,N/A,Rain,Light Rain Showers,60,2013-08-07 09:30:00
8:00 PM,55,48,70,29.83,,NE,8.1,,,,,50,2013-08-07 10:00:00
8:00 PM,55.4,48.2,77,29.83,-9999.0,NE,8.1,-,N/A,,Clear,50,2013-08-07 10:00:00
8:30 PM,57.2,50.0,77,29.83,-9999.0,North,8.1,-,N/A,,Clear,10,2013-08-07 10:30:00
9:00 PM,57,49,65,29.83,12,North,8.1,,,Rain,Light Drizzle,10,2013-08-07 11:00:00
9:00 PM,57.2,48.2,72,29.83,6.2,North,8.1,-,N/A,,Light Drizzle,10,2013-08-07 11:00:00
9:30 PM,57.2,50.0,77,29.80,-9999.0,NNE,6.9,-,N/A,,Clear,20,2013-08-07 11:30:00
10:00 PM,56,49,71,29.82,,North,8.1,,,,,350,2013-08-07 12:00:00
10:00 PM,55.4,50.0,82,29.80,-9999.0,North,8.1,-,N/A,,Clear,350,2013-08-07 12:00:00
10:30 PM,55.4,50.0,82,29.80,-9999.0,NNW,10.4,-,N/A,,Clear,340,2013-08-07 12:30:00
11:00 PM,55,49,76,29.81,,NNW,9.2,,,,,340,2013-08-07 13:00:00
11:00 PM,55.4,50.0,82,29.80,6.2,NNW,9.2,-,N/A,Rain,Light Rain Showers,340,2013-08-07 13:00:00
11:30 PM,55.4,50.0,82,29.77,6.2,NW,8.1,-,N/A,Rain,Light Rain Showers,320,2013-08-07 13:30:00